Location: Bois Neuf
(42.7667°N, 0.6333°E)
Time: 21:44:58
(UTC+00:00)

Cosmos 1937 Rocket - Pass Details

Date: 26 September 2020
Orbit: 747 x 779 km, 74.0° (Epoch: 26 October)

Event Time Altitude Azimuth Distance (km) Brightness Sun altitude
Rises 04:13:29 0° 331° (NNW) 3,202 6.6 -18.2°
Reaches altitude 10° 04:16:01 10° 322° (NW) 2,272 5.7 -17.8°
Maximum altitude 04:20:38 34° 259° (WSW) 1,210 4.0 -17.0°
Drops below altitude 10° 04:25:13 10° 195° (SSW) 2,260 5.7 -16.2°
Sets 04:27:44 0° 186° (S) 3,182 6.5 -15.7°
